DW2994 Weather Reports


Display with metric or nautical units.
time (UTC)temp
F
wind
direction
speed
MPH
gust
MPH
rain 1hr
in
rain 24hr
in
rain mn
in
humidity
%
barometer
mb
20200710221730 91 218 7.0 12.0 0.00 0.00 0.00 34 1014.4
20200710221333 91 223 5.0 14.0 0.00 0.00 0.00 35 1014.4
20200710221232 91 219 5.0 14.0 0.00 0.00 0.00 35 1014.4
20200710220734 91 220 6.0 10.0 0.00 0.00 0.00 35 1014.4
20200710220337 91 222 7.0 12.0 0.00 0.00 0.00 35 1014.4
20200710220237 91 221 7.0 12.0 0.00 0.00 0.00 35 1014.5
20200710215730 91 218 7.0 12.0 0.00 0.00 0.00 36 1014.5
20200710215332 91 216 5.0 12.0 0.00 0.00 0.00 38 1014.6
20200710215234 91 217 5.0 12.0 0.00 0.00 0.00 38 1014.6
20200710214740 91 213 7.0 12.0 0.00 0.00 0.00 38 1014.5
20200710214339 90 211 6.0 10.0 0.00 0.00 0.00 38 1014.6
20200710214243 90 213 6.0 10.0 0.00 0.00 0.00 39 1014.6
20200710213742 90 211 7.0 11.0 0.00 0.00 0.00 39 1014.6
20200710213324 90 215 6.0 11.0 0.00 0.00 0.00 39 1014.6
20200710213225 90 215 6.0 11.0 0.00 0.00 0.00 39 1014.6
20200710212725 90 211 8.0 12.0 0.00 0.00 0.00 39 1014.7
20200710212328 90 213 8.0 12.0 0.00 0.00 0.00 39 1014.7
20200710212229 90 212 9.0 12.0 0.00 0.00 0.00 39 1014.8
20200710211730 90 219 7.0 14.0 0.00 0.00 0.00 39 1014.7
20200710211334 90 222 9.0 14.0 0.00 0.00 0.00 38 1014.7
20200710211228 91 218 9.0 14.0 0.00 0.00 0.00 39 1014.7
20200710210727 91 224 8.0 16.0 0.00 0.00 0.00 38 1014.7
20200710210329 92 262 8.0 16.0 0.00 0.00 0.00 38 1014.7
20200710210233 92 226 8.0 12.0 0.00 0.00 0.00 38 1014.7
20200710205743 92 225 5.0 14.0 0.00 0.00 0.00 38 1014.7
20200710205324 92 223 7.0 15.0 0.00 0.00 0.00 38 1014.6
20200710205225 92 221 6.0 15.0 0.00 0.00 0.00 37 1014.6
20200710204743 92 221 7.0 15.0 0.00 0.00 0.00 38 1014.6
20200710204324 92 217 5.0 14.0 0.00 0.00 0.00 37 1014.7
20200710204243 92 220 5.0 14.0 0.00 0.00 0.00 37 1014.7
20200710203724 92 208 5.0 9.0 0.00 0.00 0.00 34 1014.7
20200710203325 92 209 5.0 9.0 0.00 0.00 0.00 35 1014.7
20200710203225 92 210 5.0 9.0 0.00 0.00 0.00 35 1014.7
20200710202727 92 209 5.0 12.0 0.00 0.00 0.00 34 1014.7
20200710202327 92 210 7.0 12.0 0.00 0.00 0.00 34 1014.8
20200710202226 92 210 6.0 13.0 0.00 0.00 0.00 35 1014.9
20200710201727 92 208 5.0 10.0 0.00 0.00 0.00 36 1014.9
20200710201330 92 208 6.0 10.0 0.00 0.00 0.00 33 1014.8
20200710201228 92 208 4.0 10.0 0.00 0.00 0.00 34 1014.9
20200710200728 92 209 5.0 10.0 0.00 0.00 0.00 36 1014.9
20200710200331 92 211 4.0 10.0 0.00 0.00 0.00 36 1014.9
20200710200229 92 211 4.0 10.0 0.00 0.00 0.00 36 1014.9
20200710195742 92 209 6.0 10.0 0.00 0.00 0.00 37 1014.9
20200710195324 92 210 2.0 8.0 0.00 0.00 0.00 36 1014.9
20200710195225 92 210 3.0 8.0 0.00 0.00 0.00 36 1015.0
20200710194732 91 210 3.0 9.0 0.00 0.00 0.00 37 1014.8
20200710194329 91 212 2.0 10.0 0.00 0.00 0.00 36 1015.0
20200710194234 91 212 4.0 10.0 0.00 0.00 0.00 36 1014.9
20200710193734 91 213 3.0 10.0 0.00 0.00 0.00 37 1014.9
20200710193332 91 213 5.0 8.0 0.00 0.00 0.00 37 1015.0
20200710193235 91 213 5.0 8.0 0.00 0.00 0.00 38 1014.9
20200710192737 91 213 4.0 8.0 0.00 0.00 0.00 37 1015.0
20200710192340 91 213 5.0 8.0 0.00 0.00 0.00 36 1015.0
20200710192241 91 213 4.0 8.0 0.00 0.00 0.00 37 1015.0
20200710191743 91 213 3.0 8.0 0.00 0.00 0.00 38 1015.0
20200710191341 90 213 3.0 9.0 0.00 0.00 0.00 36 1015.0
20200710191242 90 213 4.0 9.0 0.00 0.00 0.00 36 1015.1
20200710190724 89 213 4.0 8.0 0.00 0.00 0.00 38 1015.0
20200710190325 89 213 4.0 8.0 0.00 0.00 0.00 37 1015.1
20200710190228 89 213 4.0 8.0 0.00 0.00 0.00 37 1015.1
20200710185737 89 213 4.0 9.0 0.00 0.00 0.00 38 1015.1
20200710185340 88 213 3.0 9.0 0.00 0.00 0.00 40 1015.2
20200710185241 88 213 2.0 6.0 0.00 0.00 0.00 39 1015.2
20200710184744 88 213 4.0 6.0 0.00 0.00 0.00 42 1015.2
20200710184344 87 213 3.0 7.0 0.00 0.00 0.00 42 1015.2
20200710184241 87 213 4.0 7.0 0.00 0.00 0.00 43 1015.2
20200710183738 87 213 3.0 7.0 0.00 0.00 0.00 42 1015.3
20200710183340 87 213 2.0 5.0 0.00 0.00 0.00 43 1015.3
20200710183243 87 213 2.0 5.0 0.00 0.00 0.00 43 1015.2
20200710182743 86 213 3.0 8.0 0.00 0.00 0.00 43 1015.2
20200710182324 86 213 3.0 8.0 0.00 0.00 0.00 43 1015.2
20200710182224 86 213 2.0 7.0 0.00 0.00 0.00 43 1015.3
20200710181726 85 213 4.0 7.0 0.00 0.00 0.00 44 1015.2
20200710181330 85 213 3.0 7.0 0.00 0.00 0.00 44 1015.2
20200710181229 85 213 3.0 7.0 0.00 0.00 0.00 44 1015.3
20200710180730 85 213 4.0 8.0 0.00 0.00 0.00 44 1015.2
20200710180332 85 213 4.0 8.0 0.00 0.00 0.00 45 1015.2
20200710180233 85 213 4.0 8.0 0.00 0.00 0.00 45 1015.2
20200710175726 85 213 4.0 7.0 0.00 0.00 0.00 45 1015.3
20200710175328 85 213 3.0 7.0 0.00 0.00 0.00 45 1015.3
20200710175228 85 213 4.0 7.0 0.00 0.00 0.00 45 1015.3
20200710174732 85 213 2.0 7.0 0.00 0.00 0.00 45 1015.3
20200710174331 84 213 4.0 8.0 0.00 0.00 0.00 46 1015.3
20200710174236 84 213 4.0 8.0 0.00 0.00 0.00 47 1015.3
20200710173739 84 213 5.0 8.0 0.00 0.00 0.00 46 1015.1
20200710173334 84 213 3.0 6.0 0.00 0.00 0.00 46 1015.2
20200710173239 84 213 3.0 6.0 0.00 0.00 0.00 45 1015.2
20200710172741 84 213 4.0 6.0 0.00 0.00 0.00 47 1015.3
20200710172328 84 213 4.0 6.0 0.00 0.00 0.00 46 1015.2
20200710172224 84 213 4.0 6.0 0.00 0.00 0.00 46 1015.3
20200710171726 84 213 4.0 6.0 0.00 0.00 0.00 46 1015.2
20200710171329 84 213 3.0 7.0 0.00 0.00 0.00 46 1015.2
20200710171230 84 213 3.0 7.0 0.00 0.00 0.00 47 1015.2
20200710170730 84 213 3.0 7.0 0.00 0.00 0.00 47 1015.2
20200710170335 84 213 2.0 5.0 0.00 0.00 0.00 47 1015.1
20200710170232 83 213 2.0 5.0 0.00 0.00 0.00 47 1015.1
20200710165724 83 213 4.0 5.0 0.00 0.00 0.00 46 1015.1
20200710165327 83 213 2.0 5.0 0.00 0.00 0.00 48 1015.1
20200710165226 83 213 3.0 5.0 0.00 0.00 0.00 47 1015.0
20200710164736 83 213 0.0 4.0 0.00 0.00 0.00 47 1015.0
20200710164332 83 213 2.0 5.0 0.00 0.00 0.00 47 1015.0
20200710164232 83 213 2.0 5.0 0.00 0.00 0.00 47 1014.9
20200710163733 83 213 3.0 5.0 0.00 0.00 0.00 48 1015.0
20200710163336 83 213 3.0 5.0 0.00 0.00 0.00 47 1014.9
20200710163237 83 213 2.0 4.0 0.00 0.00 0.00 47 1014.9
20200710162737 82 213 0.0 4.0 0.00 0.00 0.00 48 1014.9
20200710162347 82 213 0.0 4.0 0.00 0.00 0.00 44 1014.9
20200710162239 82 213 1.0 4.0 0.00 0.00 0.00 45 1014.8
20200710161743 82 213 0.0 2.0 0.00 0.00 0.00 44 1014.9
20200710161324 82 213 0.0 3.0 0.00 0.00 0.00 45 1015.0
20200710161226 82 213 0.0 3.0 0.00 0.00 0.00 45 1015.1
20200710160727 82 213 1.0 3.0 0.00 0.00 0.00 46 1015.0
20200710160328 82 213 0.0 0.0 0.00 0.00 0.00 47 1015.0
20200710160229 82 213 0.0 0.0 0.00 0.00 0.00 47 1015.0
20200710155726 81 213 0.0 0.0 0.00 0.00 0.00 50 1015.1
20200710155343 80 213 0.0 0.0 0.00 0.00 0.00 49 1015.0
20200710155226 80 213 0.0 0.0 0.00 0.00 0.00 51 1015.0
20200710154728 79 213 0.0 0.0 0.00 0.00 0.00 53 1015.0
20200710154326 78 213 0.0 0.0 0.00 0.00 0.00 53 1015.0
20200710154233 78 213 0.0 0.0 0.00 0.00 0.00 54 1015.0
20200710153731 77 213 0.0 0.0 0.00 0.00 0.00 56 1015.0
20200710153334 76 213 0.0 0.0 0.00 0.00 0.00 58 1015.0
20200710153232 76 213 0.0 0.0 0.00 0.00 0.00 58 1014.9
20200710152734 75 213 0.0 3.0 0.00 0.00 0.00 59 1014.9
20200710152337 75 213 0.0 3.0 0.00 0.00 0.00 61 1014.8
20200710152237 75 213 0.0 3.0 0.00 0.00 0.00 61 1014.8
20200710151738 74 213 0.0 1.0 0.00 0.00 0.00 62 1014.8
20200710151340 74 213 0.0 0.0 0.00 0.00 0.00 62 1014.8
20200710151239 74 213 0.0 0.0 0.00 0.00 0.00 62 1014.8
20200710150741 74 213 0.0 0.0 0.00 0.00 0.00 62 1014.9
20200710150346 73 213 0.0 0.0 0.00 0.00 0.00 62 1014.9
20200710150225 73 213 0.0 0.0 0.00 0.00 0.00 63 1014.8
20200710145735 73 213 0.0 0.0 0.00 0.00 0.00 62 1014.7
20200710145338 72 213 0.0 0.0 0.00 0.00 0.00 62 1014.7
20200710145239 72 213 0.0 0.0 0.00 0.00 0.00 62 1014.7
20200710144740 72 213 0.0 0.0 0.00 0.00 0.00 63 1014.6
20200710144343 72 213 0.0 0.0 0.00 0.00 0.00 63 1014.6
20200710144224 71 213 0.0 0.0 0.00 0.00 0.00 62 1014.5
20200710143725 71 213 0.0 0.0 0.00 0.00 0.00 62 1014.5
20200710143330 71 213 0.0 0.0 0.00 0.00 0.00 63 1014.4
20200710143232 71 213 0.0 0.0 0.00 0.00 0.00 63 1014.4
20200710142730 70 213 0.0 0.0 0.00 0.00 0.00 63 1014.4
20200710142335 70 213 0.0 0.0 0.00 0.00 0.00 64 1014.4
20200710142236 70 213 0.0 0.0 0.00 0.00 0.00 65 1014.4
20200710141738 69 213 0.0 0.0 0.00 0.00 0.00 64 1014.3
20200710141341 69 213 0.0 0.0 0.00 0.00 0.00 65 1014.3
20200710141242 69 213 0.0 0.0 0.00 0.00 0.00 65 1014.3
20200710140726 68 213 0.0 0.0 0.00 0.00 0.00 63 1014.2
20200710140326 68 213 0.0 0.0 0.00 0.00 0.00 64 1014.2
20200710140230 68 213 0.0 0.0 0.00 0.00 0.00 63 1014.2
20200710135724 68 213 0.0 0.0 0.00 0.00 0.00 64 1014.2
20200710135341 68 213 0.0 0.0 0.00 0.00 0.00 64 1014.2
20200710135225 67 213 0.0 0.0 0.00 0.00 0.00 64 1014.1
20200710134727 67 213 0.0 0.0 0.00 0.00 0.00 64 1014.0
20200710134332 67 213 0.0 0.0 0.00 0.00 0.00 65 1014.0
20200710134229 66 213 0.0 0.0 0.00 0.00 0.00 65 1014.0
20200710133730 66 213 0.0 0.0 0.00 0.00 0.00 67 1013.9
20200710133332 66 213 0.0 0.0 0.00 0.00 0.00 68 1013.9
20200710133233 65 213 0.0 0.0 0.00 0.00 0.00 69 1013.8
20200710132733 65 213 0.0 0.0 0.00 0.00 0.00 70 1013.8
20200710132335 65 213 0.0 0.0 0.00 0.00 0.00 71 1013.7
20200710132235 65 213 0.0 0.0 0.00 0.00 0.00 71 1013.7
20200710131735 65 213 0.0 0.0 0.00 0.00 0.00 72 1013.7
20200710131337 65 213 0.0 0.0 0.00 0.00 0.00 73 1013.7
20200710131237 65 213 0.0 0.0 0.00 0.00 0.00 73 1013.6
20200710130739 64 213 0.0 0.0 0.00 0.00 0.00 75 1013.7
20200710130342 64 213 0.0 0.0 0.00 0.00 0.00 75 1013.6
20200710130243 64 213 0.0 0.0 0.00 0.00 0.00 76 1013.6
20200710125737 64 213 0.0 0.0 0.00 0.00 0.00 76 1013.6
20200710125338 64 213 0.0 0.0 0.00 0.00 0.00 76 1013.6
20200710125237 64 213 0.0 0.0 0.00 0.00 0.00 76 1013.6
20200710124737 63 213 0.0 0.0 0.00 0.00 0.00 76 1013.5
20200710124339 63 213 0.0 0.0 0.00 0.00 0.00 76 1013.5
20200710124242 63 213 0.0 0.0 0.00 0.00 0.00 75 1013.5
20200710123742 63 213 0.0 0.0 0.00 0.00 0.00 76 1013.4
20200710123344 63 213 0.0 0.0 0.00 0.00 0.00 77 1013.4
20200710123229 63 213 0.0 0.0 0.00 0.00 0.00 77 1013.5
20200710122726 63 213 0.0 0.0 0.00 0.00 0.00 78 1013.4
20200710122329 63 213 0.0 0.0 0.00 0.00 0.00 79 1013.4
20200710122230 63 213 0.0 0.0 0.00 0.00 0.00 79 1013.4
20200710121734 63 213 0.0 0.0 0.00 0.00 0.00 79 1013.4
20200710121331 63 213 0.0 0.0 0.00 0.00 0.00 81 1013.3
20200710121233 63 213 0.0 0.0 0.00 0.00 0.00 81 1013.4
20200710120739 63 213 0.0 0.0 0.00 0.00 0.00 80 1013.4
20200710120338 63 213 0.0 0.0 0.00 0.00 0.00 80 1013.4
20200710120242 63 213 0.0 0.0 0.00 0.00 0.00 80 1013.4
20200710115734 64 213 0.0 0.0 0.00 0.00 0.00 80 1013.5
20200710115340 64 213 0.0 0.0 0.00 0.00 0.00 79 1013.4
20200710115241 64 213 0.0 0.0 0.00 0.00 0.00 79 1013.4
20200710114740 64 213 0.0 0.0 0.00 0.00 0.00 79 1013.4
20200710114340 64 213 0.0 0.0 0.00 0.00 0.00 79 1013.4
20200710114240 64 213 0.0 0.0 0.00 0.00 0.00 79 1013.4
20200710113743 64 213 0.0 0.0 0.00 0.00 0.00 78 1013.3
20200710113325 65 213 0.0 0.0 0.00 0.00 0.00 78 1013.3
20200710113225 65 213 0.0 0.0 0.00 0.00 0.00 78 1013.3
20200710112726 65 213 0.0 0.0 0.00 0.00 0.00 76 1013.2
20200710112327 65 213 0.0 0.0 0.00 0.00 0.00 74 1013.2
20200710112228 65 213 0.0 0.0 0.00 0.00 0.00 74 1013.1
20200710111730 65 213 0.0 0.0 0.00 0.00 0.00 73 1013.2
20200710111330 65 213 0.0 0.0 0.00 0.00 0.00 73 1013.1
20200710111231 65 213 0.0 0.0 0.00 0.00 0.00 73 1013.1
20200710110733 65 213 0.0 0.0 0.00 0.00 0.00 73 1013.1
20200710110335 65 213 0.0 0.0 0.00 0.00 0.00 72 1013.2
20200710110237 65 213 0.0 0.0 0.00 0.00 0.00 72 1013.2
20200710105729 65 213 0.0 0.0 0.00 0.00 0.00 72 1013.3
20200710105332 65 213 0.0 0.0 0.00 0.00 0.00 72 1013.4
20200710105233 65 213 0.0 0.0 0.00 0.00 0.00 72 1013.4
20200710104735 65 213 0.0 0.0 0.00 0.00 0.00 73 1013.3
20200710104336 65 213 0.0 0.0 0.00 0.00 0.00 72 1013.2
20200710104234 65 213 0.0 0.0 0.00 0.00 0.00 72 1013.2
20200710103735 66 213 0.0 0.0 0.00 0.00 0.00 72 1013.1
20200710103340 66 213 0.0 0.0 0.00 0.00 0.00 72 1013.1
20200710103241 66 213 0.0 0.0 0.00 0.00 0.00 72 1013.1
20200710102806 66 213 0.0 0.0 0.00 0.00 0.00 71 1013.2
20200710102343 66 213 0.0 0.0 0.00 0.00 0.00 70 1013.1
20200710102242 66 213 0.0 0.0 0.00 0.00 0.00 70 1013.1
20200710101727 66 213 0.0 0.0 0.00 0.00 0.00 68 1013.2
20200710101326 66 213 0.0 0.0 0.00 0.00 0.00 68 1013.1
20200710101231 67 213 0.0 0.0 0.00 0.00 0.00 67 1013.2
20200710100743 67 213 0.0 0.0 0.00 0.00 0.00 68 1013.1
20200710100331 67 213 0.0 0.0 0.00 0.00 0.00 68 1013.2
20200710100236 67 213 0.0 0.0 0.00 0.00 0.00 68 1013.1
20200710095728 67 213 0.0 0.0 0.00 0.00 0.00 69 1013.2
20200710095329 67 213 0.0 0.0 0.00 0.00 0.00 68 1013.1
20200710095228 67 213 0.0 0.0 0.00 0.00 0.00 68 1013.1
20200710094729 66 213 0.0 0.0 0.00 0.00 0.00 68 1013.1
20200710094332 66 213 0.0 0.0 0.00 0.00 0.00 69 1013.1
20200710094233 66 213 0.0 0.0 0.00 0.00 0.00 70 1013.1
20200710093736 66 213 0.0 0.0 0.00 0.00 0.00 71 1013.1
20200710093336 66 213 0.0 0.0 0.00 0.00 0.00 72 1013.1
20200710093238 66 213 0.0 0.0 0.00 0.00 0.00 72 1013.1
20200710092739 66 213 0.0 0.0 0.00 0.00 0.00 72 1013.1
20200710092342 66 213 0.0 0.0 0.00 0.00 0.00 72 1013.2
20200710092243 66 213 0.0 0.0 0.00 0.00 0.00 72 1013.2
20200710091725 66 213 0.0 0.0 0.00 0.00 0.00 72 1013.3
20200710091328 66 213 0.0 0.0 0.00 0.00 0.00 72 1013.2
20200710091228 66 213 0.0 0.0 0.00 0.00 0.00 72 1013.1
20200710090730 66 213 0.0 0.0 0.00 0.00 0.00 72 1013.1
20200710090332 66 213 0.0 0.0 0.00 0.00 0.00 72 1013.1
20200710090231 66 213 0.0 0.0 0.00 0.00 0.00 72 1013.1
20200710085743 66 213 0.0 0.0 0.00 0.00 0.00 71 1013.2
20200710085325 66 213 0.0 0.0 0.00 0.00 0.00 71 1013.1
20200710085226 66 213 0.0 0.0 0.00 0.00 0.00 71 1013.2
20200710084728 66 213 0.0 0.0 0.00 0.00 0.00 70 1013.1
20200710084330 66 213 0.0 0.0 0.00 0.00 0.00 70 1013.1
20200710084231 66 213 0.0 0.0 0.00 0.00 0.00 70 1013.1
20200710083733 66 213 0.0 0.0 0.00 0.00 0.00 69 1013.1
20200710083334 67 213 0.0 0.0 0.00 0.00 0.00 69 1013.1
20200710083235 67 213 0.0 0.0 0.00 0.00 0.00 69 1013.1
20200710082733 67 213 0.0 0.0 0.00 0.00 0.00 69 1013.1
20200710082335 67 213 0.0 0.0 0.00 0.00 0.00 69 1013.1
20200710082237 67 213 0.0 0.0 0.00 0.00 0.00 69 1013.1
20200710081749 67 213 0.0 0.0 0.00 0.00 0.00 69 1013.0
20200710081340 67 213 0.0 0.0 0.00 0.00 0.00 69 1013.0
20200710081226 67 213 0.0 0.0 0.00 0.00 0.00 69 1013.1
20200710080727 67 213 0.0 0.0 0.00 0.00 0.00 69 1013.2
20200710080329 67 213 0.0 0.0 0.00 0.00 0.00 69 1013.2
20200710080231 67 213 0.0 0.0 0.00 0.00 0.00 69 1013.2
20200710075744 67 213 0.0 0.0 0.00 0.00 0.00 70 1013.2
20200710075324 67 213 0.0 0.0 0.00 0.00 0.00 70 1013.1
20200710075244 67 213 0.0 0.0 0.00 0.00 0.00 70 1013.1
20200710074724 67 213 0.0 0.0 0.00 0.00 0.00 72 1013.1
20200710074325 67 213 0.0 0.0 0.00 0.00 0.00 72 1013.2
20200710074226 67 213 0.0 0.0 0.00 0.00 0.00 73 1013.2
20200710073724 67 213 0.0 0.0 0.00 0.00 0.00 73 1013.3
20200710073325 67 213 0.0 0.0 0.00 0.00 0.00 73 1013.3
20200710073226 67 213 0.0 0.0 0.00 0.00 0.00 73 1013.3
20200710072728 66 213 0.0 0.0 0.00 0.00 0.00 74 1013.4
20200710072329 66 213 0.0 0.0 0.00 0.00 0.00 75 1013.3
20200710072228 66 213 0.0 0.0 0.00 0.00 0.00 75 1013.2
20200710071728 66 213 0.0 0.0 0.00 0.00 0.00 77 1013.2
20200710071332 66 213 0.0 0.0 0.00 0.00 0.00 77 1013.2
20200710071234 65 213 0.0 0.0 0.00 0.00 0.00 77 1013.2
20200710070733 65 213 0.0 0.0 0.00 0.00 0.00 78 1013.2
20200710070336 65 213 0.0 0.0 0.00 0.00 0.00 79 1013.2
20200710070236 65 213 0.0 0.0 0.00 0.00 0.00 79 1013.2
20200710065730 65 213 0.0 0.0 0.00 0.00 0.00 80 1013.2
20200710065332 65 213 0.0 0.0 0.00 0.00 0.00 80 1013.2
20200710065230 65 213 0.0 0.0 0.00 0.00 0.00 80 1013.2
20200710064732 65 213 0.0 0.0 0.00 0.00 0.00 80 1013.2
20200710064334 65 213 0.0 0.0 0.00 0.00 0.00 80 1013.2
20200710064234 65 213 0.0 0.0 0.00 0.00 0.00 80 1013.2
20200710063735 65 213 0.0 0.0 0.00 0.00 0.00 80 1013.2
20200710063338 65 213 0.0 0.0 0.00 0.00 0.00 80 1013.2
20200710063240 65 213 0.0 0.0 0.00 0.00 0.00 80 1013.2
20200710062726 65 213 0.0 0.0 0.00 0.00 0.00 80 1013.2
20200710062324 66 213 0.0 0.0 0.00 0.00 0.00 80 1013.1
20200710062229 66 213 0.0 0.0 0.00 0.00 0.00 80 1013.1
20200710061731 66 213 0.0 0.0 0.00 0.00 0.00 80 1013.1
20200710061329 66 213 0.0 0.0 0.00 0.00 0.00 80 1013.1
20200710061232 66 213 0.0 0.0 0.00 0.00 0.00 80 1013.1
20200710060735 65 213 0.0 0.0 0.00 0.00 0.00 81 1013.1
20200710060337 65 213 0.0 0.0 0.00 0.00 0.00 82 1013.1
20200710060236 65 213 0.0 0.0 0.00 0.00 0.00 82 1013.1
20200710055731 65 213 0.0 0.0 0.00 0.00 0.00 82 1013.0
20200710055340 65 213 0.0 0.0 0.00 0.00 0.00 83 1013.0
20200710055232 65 213 0.0 0.0 0.00 0.00 0.00 83 1013.0
20200710054734 65 213 0.0 0.0 0.00 0.00 0.00 84 1013.0
20200710054335 65 213 0.0 0.0 0.00 0.00 0.00 84 1012.9
20200710054237 65 213 0.0 0.0 0.00 0.00 0.00 84 1012.9
20200710053800 64 213 0.0 0.0 0.00 0.00 0.00 85 1013.0
20200710053340 64 213 0.0 0.0 0.00 0.00 0.00 85 1013.0
20200710053239 64 213 0.0 0.0 0.00 0.00 0.00 85 1013.0
20200710052741 64 213 0.0 0.0 0.00 0.00 0.00 86 1013.1
20200710052344 64 213 0.0 0.0 0.00 0.00 0.00 87 1013.1
20200710052245 64 213 0.0 0.0 0.00 0.00 0.00 87 1013.1
20200710051743 64 213 0.0 0.0 0.00 0.00 0.00 87 1013.1
20200710051324 64 213 0.0 0.0 0.00 0.00 0.00 88 1013.0
20200710051226 64 213 0.0 0.0 0.00 0.00 0.00 88 1013.0
20200710050725 63 213 0.0 0.0 0.00 0.00 0.00 88 1012.9
20200710050328 63 213 0.0 0.0 0.00 0.00 0.00 88 1012.9
20200710050229 63 213 0.0 0.0 0.00 0.00 0.00 88 1012.9
20200710045741 63 213 0.0 0.0 0.00 0.00 0.00 88 1012.8
20200710045344 63 213 0.0 0.0 0.00 0.00 0.00 88 1012.8
20200710045224 63 213 0.0 0.0 0.00 0.00 0.00 88 1012.7
20200710044725 63 213 0.0 0.0 0.00 0.00 0.00 87 1012.6
20200710044326 63 213 0.0 0.0 0.00 0.00 0.00 87 1012.6
20200710044228 63 213 0.0 0.0 0.00 0.00 0.00 87 1012.6
20200710043729 64 213 0.0 0.0 0.00 0.00 0.00 87 1012.6
20200710043332 64 213 0.0 0.0 0.00 0.00 0.00 87 1012.6
20200710043233 64 213 0.0 0.0 0.00 0.00 0.00 87 1012.5
20200710042738 64 213 0.0 0.0 0.00 0.00 0.00 86 1012.5
20200710042337 64 213 0.0 0.0 0.00 0.00 0.00 86 1012.4
20200710042242 64 213 0.0 0.0 0.00 0.00 0.00 86 1012.4
20200710041724 64 213 0.0 0.0 0.00 0.00 0.00 85 1012.3
20200710041325 64 213 0.0 0.0 0.00 0.00 0.00 84 1012.2
20200710041243 64 213 0.0 0.0 0.00 0.00 0.00 84 1012.2
20200710040724 65 213 0.0 0.0 0.00 0.00 0.00 84 1012.2
20200710040326 65 213 0.0 2.0 0.00 0.00 0.00 83 1012.2
20200710040225 65 213 0.0 3.0 0.00 0.00 0.00 83 1012.1
20200710035738 65 213 0.0 5.0 0.00 0.00 0.00 82 1012.0
20200710035340 65 213 1.0 5.0 0.00 0.00 0.00 82 1012.0
20200710035241 65 213 2.0 5.0 0.00 0.00 0.00 82 1012.0
20200710034743 66 213 3.0 4.0 0.00 0.00 0.00 81 1011.9
20200710034327 66 213 2.0 4.0 0.00 0.00 0.00 80 1012.0
20200710034226 66 213 2.0 4.0 0.00 0.00 0.00 80 1012.0
20200710033727 66 213 3.0 4.0 0.00 0.00 0.00 79 1011.9
20200710033328 67 213 2.0 4.0 0.00 0.00 0.00 78 1011.9
20200710033230 67 213 1.0 4.0 0.00 0.00 0.00 78 1011.9
20200710032732 67 213 1.0 4.0 0.00 0.00 0.00 77 1011.8
20200710032334 67 213 1.0 4.0 0.00 0.00 0.00 76 1011.8
20200710032234 67 213 0.0 4.0 0.00 0.00 0.00 76 1011.8
20200710031736 68 213 2.0 3.0 0.00 0.00 0.00 75 1011.8
20200710031337 68 213 1.0 5.0 0.00 0.00 0.00 74 1011.9
20200710031238 68 213 2.0 5.0 0.00 0.00 0.00 74 1011.8
20200710030739 69 213 2.0 5.0 0.00 0.00 0.00 73 1011.8
20200710030340 69 213 3.0 6.0 0.00 0.00 0.00 72 1011.8
20200710030241 69 213 3.0 6.0 0.00 0.00 0.00 72 1011.8
20200710025732 70 213 2.0 6.0 0.00 0.00 0.00 70 1011.8
20200710025333 70 213 3.0 6.0 0.00 0.00 0.00 69 1011.8
20200710025238 70 213 3.0 4.0 0.00 0.00 0.00 69 1011.8
20200710024735 71 213 3.0 4.0 0.00 0.00 0.00 68 1011.8
20200710024338 71 213 2.0 6.0 0.00 0.00 0.00 67 1011.8
20200710024239 71 213 2.0 6.0 0.00 0.00 0.00 67 1011.8
20200710023727 72 213 3.0 7.0 0.00 0.00 0.00 65 1011.8
20200710023323 72 213 3.0 7.0 0.00 0.00 0.00 64 1011.8
20200710023230 73 213 4.0 7.0 0.00 0.00 0.00 64 1011.8
20200710022727 73 213 4.0 7.0 0.00 0.00 0.00 62 1011.7
20200710022326 74 213 5.0 7.0 0.00 0.00 0.00 60 1011.7
20200710022232 74 213 5.0 7.0 0.00 0.00 0.00 60 1011.7
20200710021731 75 213 2.0 6.0 0.00 0.00 0.00 59 1011.7
20200710021333 75 213 3.0 6.0 0.00 0.00 0.00 58 1011.7
20200710021232 75 213 3.0 6.0 0.00 0.00 0.00 58 1011.7
20200710020734 75 213 3.0 7.0 0.00 0.00 0.00 58 1011.7
20200710020336 75 213 4.0 7.0 0.00 0.00 0.00 57 1011.6
20200710020237 75 213 4.0 7.0 0.00 0.00 0.00 57 1011.6
20200710015731 76 213 5.0 7.0 0.00 0.00 0.00 55 1011.6
20200710015331 76 213 3.0 6.0 0.00 0.00 0.00 55 1011.5
20200710015231 76 213 3.0 6.0 0.00 0.00 0.00 55 1011.5
20200710014732 77 213 4.0 6.0 0.00 0.00 0.00 54 1011.5
20200710014333 77 213 3.0 8.0 0.00 0.00 0.00 54 1011.5
20200710014233 77 213 3.0 8.0 0.00 0.00 0.00 54 1011.5
20200710013734 77 213 3.0 8.0 0.00 0.00 0.00 54 1011.6
20200710013337 77 213 5.0 9.0 0.00 0.00 0.00 53 1011.5
20200710013237 77 213 5.0 9.0 0.00 0.00 0.00 53 1011.5
20200710012739 77 212 5.0 9.0 0.00 0.00 0.00 52 1011.6
20200710012339 78 212 6.0 9.0 0.00 0.00 0.00 51 1011.6
20200710012244 78 212 5.0 9.0 0.00 0.00 0.00 51 1011.6
20200710011740 79 212 4.0 8.0 0.00 0.00 0.00 50 1011.6
20200710011343 79 212 4.0 8.0 0.00 0.00 0.00 50 1011.5
20200710011242 79 212 4.0 8.0 0.00 0.00 0.00 50 1011.6
20200710010744 79 212 5.0 8.0 0.00 0.00 0.00 50 1011.6
20200710010325 79 212 6.0 8.0 0.00 0.00 0.00 49 1011.5
20200710010225 79 212 5.0 8.0 0.00 0.00 0.00 49 1011.4
20200710005739 79 211 5.0 9.0 0.00 0.00 0.00 49 1011.4
20200710005339 79 212 5.0 10.0 0.00 0.00 0.00 48 1011.5
20200710005238 79 212 5.0 10.0 0.00 0.00 0.00 48 1011.4
20200710004735 80 211 4.0 10.0 0.00 0.00 0.00 47 1011.4
20200710004337 80 215 5.0 10.0 0.00 0.00 0.00 46 1011.4
20200710004236 80 215 5.0 10.0 0.00 0.00 0.00 46 1011.4
20200710003738 80 215 5.0 9.0 0.00 0.00 0.00 46 1011.4
20200710003340 80 215 6.0 9.0 0.00 0.00 0.00 45 1011.4
20200710003226 80 215 5.0 9.0 0.00 0.00 0.00 45 1011.4
20200710002727 80 214 6.0 11.0 0.00 0.00 0.00 45 1011.4
20200710002327 80 214 5.0 11.0 0.00 0.00 0.00 45 1011.4
20200710002232 80 217 5.0 10.0 0.00 0.00 0.00 45 1011.4
20200710001732 80 219 7.0 10.0 0.00 0.00 0.00 45 1011.4
20200710001339 81 218 6.0 10.0 0.00 0.00 0.00 46 1011.4
20200710001228 81 218 5.0 10.0 0.00 0.00 0.00 46 1011.4
20200710000729 81 216 5.0 11.0 0.00 0.00 0.00 46 1011.4
20200710000332 81 217 5.0 11.0 0.00 0.00 0.00 46 1011.5
20200710000232 81 217 6.0 11.0 0.00 0.00 0.00 46 1011.4
20200709235723 81 212 6.0 11.0 0.00 0.00 0.00 45 1011.4
20200709235326 81 211 7.0 11.0 0.00 0.00 0.00 45 1011.5
20200709235227 81 211 7.0 11.0 0.00 0.00 0.00 45 1011.6
20200709234730 81 217 6.0 10.0 0.00 0.00 0.00 45 1011.4
20200709234331 82 219 6.0 10.0 0.00 0.00 0.00 45 1011.5
20200709234231 82 219 6.0 10.0 0.00 0.00 0.00 45 1011.4
20200709233733 82 221 6.0 11.0 0.00 0.00 0.00 45 1011.5
20200709233335 82 219 5.0 12.0 0.00 0.00 0.00 45 1011.4
20200709233236 82 219 6.0 12.0 0.00 0.00 0.00 45 1011.4
20200709232738 82 221 6.0 12.0 0.00 0.00 0.00 45 1011.4
20200709232339 83 220 6.0 12.0 0.00 0.00 0.00 45 1011.4
20200709232241 83 219 6.0 12.0 0.00 0.00 0.00 45 1011.4
20200709231742 83 228 5.0 10.0 0.00 0.00 0.00 45 1011.5
20200709231324 83 227 4.0 9.0 0.00 0.00 0.00 45 1011.6
20200709231242 83 227 4.0 10.0 0.00 0.00 0.00 45 1011.5
20200709230742 83 227 5.0 11.0 0.00 0.00 0.00 46 1011.5
20200709230324 83 227 7.0 12.0 0.00 0.00 0.00 45 1011.6
20200709230224 83 223 6.0 12.0 0.00 0.00 0.00 46 1011.5
20200709225737 83 224 7.0 12.0 0.00 0.00 0.00 45 1011.5
20200709225338 83 229 7.0 11.0 0.00 0.00 0.00 45 1011.6
20200709225236 83 223 6.0 10.0 0.00 0.00 0.00 45 1011.5
20200709224738 83 225 5.0 11.0 0.00 0.00 0.00 46 1011.5
20200709224340 83 225 8.0 12.0 0.00 0.00 0.00 45 1011.5
20200709224240 83 225 7.0 12.0 0.00 0.00 0.00 45 1011.4
20200709223739 84 228 8.0 13.0 0.00 0.00 0.00 44 1011.5
20200709223341 84 217 5.0 11.0 0.00 0.00 0.00 45 1011.6
20200709223227 84 217 6.0 11.0 0.00 0.00 0.00 45 1011.5
20200709222727 84 220 6.0 10.0 0.00 0.00 0.00 45 1011.5
20200709222325 84 222 5.0 10.0 0.00 0.00 0.00 45 1011.5
20200709222230 84 222 6.0 10.0 0.00 0.00 0.00 45 1011.6